[[{"header":{"parameterUnit":"m.s-1","parameterCategory":1,"la1":30.2991,"la2":30.254,"lo1":-89.0895,"lo2":-89.0444,"dy":0.0017,"dx":0.0017,"nx":28,"ny":28,"refTime":"2025-04-08T03:00:00:Z","depth":0,"parameterNumber":2,"parameterNumberName":"U-component_of_WINDS"},"data":[0,0,0,0,0,0,0,0,0,0,0,0,0,0,0,0,0,0,0,0,0,0,0,0,0,0,0,0,0,0,0,0,0,0,0,0,0,0,0,0,0,0,0,0,0,0,0,0,0,0,0,0,0,0,0,0,0,0,2.5744,2.5744,0,2.5701,2.57,2.57,2.5635,2.5634,2.5633,2.5632,2.5589,2.5589,2.5589,0,0,0,0,0,0,0,0,0,0,0,0,0,2.5775,2.5775,2.5744,2.5744,2.5743,2.5701,2.57,2.57,2.5636,2.5634,2.5633,2.5632,2.5589,2.5589,2.5589,0,0,0,0,0,0,0,0,0,0,0,0,0,2.575,2.5775,2.5744,2.5706,2.5702,2.5701,2.57,2.5699,2.5636,2.5634,2.5632,2.5631,2.5589,2.5589,2.5589,2.5622,0,0,2.5589,2.5589,0,0,0,0,0,0,0,0,2.5751,2.5749,2.5712,2.5709,2.5704,2.5672,2.5695,2.5674,2.5636,2.5661,2.5632,2.563,2.5618,2.5616,2.5611,2.562,2.5618,2.5589,2.5589,2.5589,2.5588,0,0,0,0,0,0,0,2.5753,2.575,2.5727,2.5712,2.5707,2.5692,2.5687,2.5691,2.565,2.5659,2.5654,2.565,2.5616,2.5611,2.561,2.5618,2.5589,2.5589,2.5588,2.5588,2.5654,2.5655,0,0,0,0,0,0,2.576,2.5752,2.5728,2.5726,2.5724,2.5693,2.5687,2.5684,2.5649,2.5643,2.5651,2.5647,2.5613,2.561,2.5608,2.5645,2.5589,2.5588,2.5588,2.5652,2.5654,2.5656,0,0,0,0,0,0,2.5761,2.5759,2.573,2.5738,2.5733,2.5694,2.5692,2.5684,2.5679,2.5644,2.5636,2.5654,2.5611,2.5608,2.5619,2.5643,2.5588,2.5588,2.565,2.5652,2.5655,2.5719,0,0,0,0,0,0,2.5762,2.5759,2.577,2.5738,2.5733,2.5741,2.5693,2.5684,2.5679,2.5673,2.5645,2.5638,2.561,2.562,2.5619,2.5641,2.5588,2.5647,2.5651,2.5654,2.5715,2.5724,2.5731,0,0,0,0,0,2.5763,2.579,2.5771,2.5769,2.5746,2.5743,2.574,2.5706,2.5681,2.5693,2.567,2.5639,2.5641,2.5622,2.562,2.5643,2.5646,2.565,2.5654,2.5711,2.5722,2.5731,0,0,0,0,0,0,2.5826,2.5785,2.5764,2.5781,2.5766,2.5732,2.5745,2.5718,2.571,2.5705,2.5664,2.5658,2.5674,2.566,2.5639,2.5674,2.5639,2.5643,2.5682,2.5693,2.5701,2.5703,2.5588,0,0,0,0,0,2.5842,2.5842,2.5807,2.5826,2.5819,2.5784,2.5781,2.5757,2.574,2.5733,2.5711,2.5696,2.5694,2.5692,2.5688,2.5713,2.5706,2.5728,2.5737,2.5744,2.5747,2.5761,2.577,2.5669,2.5669,2.5669,0,0,2.5875,2.5852,2.5855,2.5838,2.5823,2.5825,2.5779,2.5783,2.5784,2.5734,2.5743,2.5727,2.5708,2.5727,2.5734,2.5715,2.5774,2.5749,2.5755,2.5754,2.5766,2.5775,2.5784,2.5672,2.5672,2.5671,0,0,2.5935,2.5918,2.5932,2.5919,2.5898,2.5874,2.5878,2.5849,2.5836,2.5845,2.5807,2.5809,2.5805,2.5793,2.5787,2.5846,2.5817,2.5846,2.5889,2.5902,2.591,2.5917,2.5939,2.5947,2.585,2.585,2.585,0,2.5978,2.5979,2.5943,2.5949,2.5944,2.5899,2.5913,2.5902,2.5881,2.5878,2.5858,2.5853,2.5837,2.5853,2.5867,2.5864,2.5867,2.5848,2.5912,2.5919,2.5924,2.5944,2.5952,2.5854,2.5853,2.5853,2.5853,0,2.6034,2.6035,2.6049,2.603,2.6026,2.6036,2.6003,2.6004,2.598,2.596,2.597,2.595,2.5941,2.5943,2.592,2.5956,2.5946,2.5919,2.5883,2.5938,2.5956,2.5964,2.5859,2.5858,2.5857,2.5856,0,0,2.613,2.6092,2.6097,2.6089,2.6063,2.6064,2.6074,2.6065,2.6067,2.6055,2.6062,2.6061,2.6037,2.603,2.6006,2.6018,2.6067,2.599,2.5989,2.6005,2.6106,2.6125,2.6135,2.6048,2.6049,2.6051,2.6108,0,2.6185,2.6198,2.6167,2.6188,2.619,2.6148,2.6157,2.6143,2.6125,2.6125,2.6105,2.6105,2.6073,2.6069,2.6079,2.6058,2.6086,2.6054,2.6055,2.6056,2.606,2.6144,2.6164,2.6218,2.6114,2.6116,2.6116,0,2.6249,2.6241,2.6262,2.6237,2.6237,2.6245,2.6235,2.6235,2.6219,2.6206,2.6199,2.6171,2.618,2.6146,2.6159,2.6138,2.6137,2.6127,2.6129,2.6126,2.6088,2.6144,2.6235,2.6243,2.6127,2.6126,2.6125,0,2.6317,2.6311,2.6323,2.6317,2.6288,2.6295,2.6284,2.6266,2.6264,2.6256,2.6254,2.6248,2.6244,2.624,2.6212,2.619,2.6229,2.6192,2.6218,2.6218,2.6226,2.6226,2.6318,2.6227,2.6227,2.6227,2.6227,0,2.6381,2.6396,2.6354,2.6361,2.6377,2.6343,2.636,2.6344,2.633,2.6334,2.6299,2.6304,2.6267,2.6269,2.6247,2.6261,2.626,2.625,2.6243,2.6252,2.6253,2.625,2.6245,2.6229,2.6229,2.6228,2.6228,0,2.6459,2.6431,2.6442,2.6414,2.6408,2.6421,2.6397,2.6404,2.6385,2.6391,2.6391,2.6361,2.6361,2.6333,2.6328,2.6313,2.6337,2.6324,2.6342,2.6337,2.6365,2.6362,2.6457,2.6468,2.6371,2.6372,2.6373,0,2.65,2.6511,2.6485,2.6485,2.6476,2.6477,2.6474,2.6442,2.6441,2.6425,2.6434,2.6431,2.6427,2.643,2.6408,2.6405,2.6391,2.6425,2.639,2.6399,2.6391,2.6391,2.6392,2.6432,2.6433,2.6434,2.6435,0,2.6578,2.6564,2.6561,2.6555,2.6552,2.6546,2.6536,2.6539,2.6504,2.6505,2.6505,2.6502,2.6497,2.6495,2.6488,2.6477,2.6451,2.6446,2.6452,2.646,2.647,2.6465,2.6361,2.6444,2.6443,2.6442,2.6442,2.6441,2.6638,2.6646,2.663,2.6628,2.6618,2.6611,2.6616,2.6598,2.6597,2.659,2.6572,2.6575,2.6561,2.6549,2.6541,2.6544,2.6527,2.6535,2.6537,2.6539,2.6544,2.6471,2.6542,2.6542,2.6542,2.6541,2.6541,0,2.6714,2.6701,2.6701,2.6689,2.6689,2.6664,2.6654,2.6655,2.6658,2.6647,2.6645,2.6646,2.6645,2.6624,2.662,2.6627,2.6615,2.6627,2.6626,2.6624,2.656,2.6555,2.6637,2.6637,2.6637,2.6637,2.6637,2.6637,2.6753,2.6765,2.675,2.6757,2.6745,2.6748,2.6744,2.6738,2.6729,2.6732,2.6731,2.6717,2.6703,2.6698,2.6697,2.6691,2.6691,2.6707,2.6697,2.6637,2.6628,2.6619,2.6614,2.6708,2.6708,2.6761,2.6762,2.6762]},{"header":{"parameterUnit":"m.s-1","parameterCategory":1,"la1":30.2991,"la2":30.254,"lo1":-89.0895,"lo2":-89.0444,"dy":0.0017,"dx":0.0017,"nx":28,"ny":28,"refTime":"2025-04-08T03:00:00:Z","depth":0,"parameterNumber":3,"parameterNumberName":"V-component_of_WINDS"},"data":[0,0,0,0,0,0,0,0,0,0,0,0,0,0,0,0,0,0,0,0,0,0,0,0,0,0,0,0,0,0,0,0,0,0,0,0,0,0,0,0,0,0,0,0,0,0,0,0,0,0,0,0,0,0,0,0,0,0,-6.6554,-6.6555,0,-6.6693,-6.6694,-6.6696,-6.6634,-6.6631,-6.6627,-6.6624,-6.6768,-6.6775,-6.6782,0,0,0,0,0,0,0,0,0,0,0,0,0,-6.6237,-6.6243,-6.6554,-6.6555,-6.6557,-6.6693,-6.6694,-6.6696,-6.6635,-6.6631,-6.6627,-6.6623,-6.6766,-6.6774,-6.6783,0,0,0,0,0,0,0,0,0,0,0,0,0,-6.6375,-6.6245,-6.6553,-6.6543,-6.6543,-6.6692,-6.6695,-6.6697,-6.6636,-6.6631,-6.6625,-6.6621,-6.6763,-6.6774,-6.6784,-6.6952,0,0,-6.6816,-6.6821,0,0,0,0,0,0,0,0,-6.6367,-6.6387,-6.6542,-6.6544,-6.6544,-6.6641,-6.6635,-6.6783,-6.6637,-6.6601,-6.6624,-6.6618,-6.673,-6.6743,-6.6781,-6.6959,-6.6965,-6.6817,-6.6824,-6.6828,-6.6831,0,0,0,0,0,0,0,-6.6358,-6.638,-6.6609,-6.6545,-6.6546,-6.6532,-6.6546,-6.6663,-6.6693,-6.6603,-6.6599,-6.6617,-6.673,-6.6771,-6.6784,-6.6967,-6.6817,-6.6826,-6.6833,-6.6837,-6.7291,-6.7297,0,0,0,0,0,0,-6.6348,-6.6373,-6.6604,-6.6613,-6.6441,-6.6542,-6.6557,-6.6615,-6.6691,-6.6698,-6.6621,-6.6613,-6.6755,-6.6771,-6.6788,-6.6991,-6.6828,-6.6838,-6.6844,-6.7286,-6.7293,-6.7299,0,0,0,0,0,0,-6.6341,-6.6369,-6.6599,-6.6492,-6.652,-6.6552,-6.6618,-6.6621,-6.6661,-6.6704,-6.6709,-6.6657,-6.6752,-6.6774,-6.6912,-6.6995,-6.6843,-6.6852,-6.7279,-6.7288,-6.7296,-6.7397,0,0,0,0,0,0,-6.6332,-6.6367,-6.6431,-6.6494,-6.6526,-6.672,-6.6623,-6.6627,-6.668,-6.6671,-6.674,-6.6746,-6.6749,-6.6897,-6.6923,-6.7007,-6.6861,-6.7272,-6.7283,-6.7293,-6.7386,-6.7408,-6.7426,0,0,0,0,0,-6.6321,-6.6454,-6.6434,-6.6463,-6.6606,-6.6724,-6.6743,-6.6743,-6.6686,-6.6751,-6.6779,-6.6744,-6.6982,-6.6911,-6.694,-6.7029,-6.7266,-6.728,-6.7292,-6.7377,-6.7404,-6.7426,0,0,0,0,0,0,-6.64,-6.6462,-6.6441,-6.6597,-6.6656,-6.6714,-6.6795,-6.6771,-6.6848,-6.6836,-6.6834,-6.6851,-6.6994,-6.7025,-6.6945,-6.7196,-6.7116,-6.7135,-6.717,-6.7196,-6.7215,-6.7205,-6.6869,0,0,0,0,0,-6.6436,-6.6526,-6.6575,-6.6709,-6.6739,-6.6763,-6.6814,-6.681,-6.687,-6.6895,-6.6933,-6.6994,-6.7082,-6.7141,-6.7224,-6.739,-6.7405,-6.7466,-6.7486,-6.7502,-6.7519,-6.761,-6.7637,-6.7341,-6.7341,-6.7341,0,0,-6.651,-6.6555,-6.6612,-6.6726,-6.6771,-6.6865,-6.6784,-6.6887,-6.6957,-6.6911,-6.7044,-6.7074,-6.7142,-6.7295,-6.7365,-6.7326,-6.7604,-6.7518,-6.7531,-6.7539,-6.7626,-6.7654,-6.7679,-6.735,-6.7349,-6.7347,0,0,-6.6694,-6.6737,-6.6853,-6.69,-6.6969,-6.6983,-6.7012,-6.7073,-6.7092,-6.7225,-6.7192,-6.7276,-6.7429,-6.7479,-6.7524,-6.7728,-6.7699,-6.7756,-6.786,-6.7949,-6.7973,-6.7993,-6.8067,-6.8093,-6.7772,-6.7773,-6.7773,0,-6.6778,-6.6918,-6.6916,-6.7022,-6.7073,-6.7036,-6.7154,-6.7199,-6.7293,-6.7329,-6.7284,-6.7475,-6.7518,-6.7683,-6.7733,-6.7771,-6.7803,-6.7748,-6.7969,-6.799,-6.8009,-6.8079,-6.8107,-6.7779,-6.7778,-6.7778,-6.7777,0,-6.7018,-6.7116,-6.7202,-6.7293,-6.7354,-6.7465,-6.7481,-6.7543,-6.7534,-6.7553,-6.769,-6.7741,-6.7835,-6.7873,-6.7865,-6.8038,-6.8012,-6.7968,-6.7887,-6.8044,-6.811,-6.8137,-6.7788,-6.7786,-6.7784,-6.7782,0,0,-6.7255,-6.7343,-6.7375,-6.7416,-6.749,-6.7566,-6.7677,-6.7768,-6.7822,-6.7888,-6.7981,-6.8111,-6.8072,-6.8123,-6.8121,-6.8199,-6.8358,-6.8146,-6.8147,-6.8184,-6.8552,-6.8584,-6.8616,-6.8339,-6.8344,-6.8348,-6.8547,0,-6.7444,-6.7637,-6.7639,-6.7817,-6.7908,-6.7874,-6.797,-6.8027,-6.8049,-6.813,-6.8154,-6.8246,-6.8187,-6.8218,-6.8294,-6.8323,-6.8432,-6.8308,-6.8427,-6.8431,-6.8411,-6.865,-6.8684,-6.8869,-6.8572,-6.8577,-6.858,0,-6.7691,-6.7765,-6.7952,-6.8013,-6.8052,-6.8138,-6.8222,-6.83,-6.8364,-6.8374,-6.8433,-6.8418,-6.8532,-6.8448,-6.8605,-6.8521,-6.857,-6.8591,-6.8598,-6.861,-6.8515,-6.8668,-6.8927,-6.8955,-6.862,-6.8617,-6.8614,0,-6.7846,-6.7992,-6.8123,-6.8159,-6.8234,-6.8296,-6.833,-6.8388,-6.8443,-6.8517,-6.8553,-6.864,-6.8688,-6.8755,-6.8765,-6.8703,-6.8924,-6.884,-6.8936,-6.8936,-6.8984,-6.8981,-6.9255,-6.9015,-6.9015,-6.9014,-6.9014,0,-6.8057,-6.8173,-6.8193,-6.8274,-6.8403,-6.8404,-6.8532,-6.8561,-6.8614,-6.87,-6.8677,-6.8758,-6.8766,-6.8851,-6.886,-6.8989,-6.901,-6.9023,-6.9024,-6.9025,-6.9024,-6.9057,-6.9044,-6.9022,-6.902,-6.9019,-6.9017,0,-6.8251,-6.8269,-6.841,-6.8469,-6.8487,-6.858,-6.8631,-6.8709,-6.8728,-6.8838,-6.8864,-6.8895,-6.8994,-6.901,-6.9126,-6.9132,-6.9287,-6.9274,-6.9265,-6.9264,-6.9359,-6.935,-6.9665,-6.9706,-6.9439,-6.9441,-6.9443,0,-6.8385,-6.8473,-6.8543,-6.8599,-6.8636,-6.8726,-6.8782,-6.8788,-6.8847,-6.8927,-6.8996,-6.9091,-6.9168,-6.9327,-6.9361,-6.945,-6.9439,-6.9544,-6.9453,-6.9452,-6.9442,-6.9436,-6.9446,-6.9561,-6.9564,-6.9566,-6.9568,0,-6.8621,-6.8626,-6.8707,-6.8793,-6.886,-6.8928,-6.8992,-6.9039,-6.9053,-6.9122,-6.9222,-6.9281,-6.94,-6.9496,-6.9584,-6.962,-6.9598,-6.9597,-6.9624,-6.9626,-6.9617,-6.9624,-6.9313,-6.959,-6.9587,-6.9586,-6.9585,-6.9584,-6.8789,-6.8866,-6.8927,-6.902,-6.9068,-6.9129,-6.9205,-6.9234,-6.9317,-6.9414,-6.9412,-6.9522,-6.9585,-6.9701,-6.9743,-6.983,-6.9797,-6.9836,-6.9846,-6.9855,-6.9865,-6.9603,-6.9846,-6.9846,-6.9845,-6.9845,-6.9844,0,-6.9024,-6.9062,-6.9146,-6.9237,-6.931,-6.9281,-6.9351,-6.9414,-6.9511,-6.9571,-6.9647,-6.9763,-6.9856,-6.9897,-6.9989,-7.0051,-7.0043,-7.0075,-7.007,-7.0079,-6.9889,-6.9857,-7.008,-7.008,-7.008,-7.008,-7.008,-7.008,-6.9155,-6.9284,-6.9296,-6.945,-6.9487,-6.9595,-6.9637,-6.9693,-6.9741,-6.9871,-6.9948,-6.9974,-7.0027,-7.0123,-7.0208,-7.0217,-7.0253,-7.029,-7.0295,-7.0117,-7.0093,-7.007,-7.0039,-7.0297,-7.0298,-7.0478,-7.048,-7.0481]}]]